www.pogodaiklimat.ru

Погода и климат >> Архив погоды >> Россия >> Приморский край >> Глубинное


ПОГОДА в Глубинном

  • Прогноз погоды в Глубинном
  • Монитор погоды в Глубинном

АРХИВ ПОГОДЫ в Глубинном

Время (UTC), дата Ветер
(напр.,м/с)
 
Видим.   Явления Облачность Т
(С)
Тd
(С)
f
(%)
Тe
(С)
Тes
(С)
Комфортность P
(гПа)
Po
(гПа)
Тmin
(С)
Tmax
(С)
R
(мм)
R24
(мм)
S
(см)
00 16.04 штиль 0 10 км ясно +9.2 -3.5 41 +9 +21 опасность
простуды
1008.0 982.9
03 16.04 ЮЗ 3 10 км 1 балл +19.5 -7.8 15 +19 +31 опасность
простуды
1005.6 981.3
06 16.04 ЮЗ 2 10 км 2 балла +22.1 -6.6 14 +21 +27 комфорт 1001.2 977.3
09 16.04 ЮЗ 1 10 км 9/4 600 м
[Sc Ci fib]
+20.0 -5.8 17 +21 +21 комфорт 1001.4 977.3 +22.4
12 16.04 Ю 1 10 км 8/8 600 м
[Sc]
+5.7 -1.0 62 +5 +5 1003.7 978.4
15 16.04 штиль 0 10 км 7 баллов -0.3 -2.5 85 -1 -1 1007.3 981.3
18 16.04 штиль 0 10 км 7 баллов -1.4 -3.0 89 -3 -3 1007.4 981.3
21 16.04 штиль 0 10 км 9/0
[Ci fib]
-1.4 -2.7 91 -3 -3 1008.9 982.7 -2.2
00 17.04 штиль 0 10 км 10/0
[Ci sp]
+10.5 -0.8 45 +10 +20 опасность
простуды
1006.8 981.9
03 17.04 З 2 10 км 2 балла +21.7 -3.7 18 +21 +33 комфорт 1004.0 980.0
06 17.04 ЮЗ 3 10 км ясно +25.9 -9.4 9 +23 +30 комфорт 1000.9 977.3
09 17.04 ЮЗ 1 10 км 9/0
[Ci sp]
+23.0 -11.6 9 +20 +20 999.9 976.0 +26.4
12 17.04 СВ 1 10 км 6/0
[Ci fib]
+7.9 -1.8 50 +8 +8 1000.6 975.6
15 17.04 штиль 0 10 км 10 баллов +2.0 -2.3 73 +1 +1 1001.7 976.0
18 17.04 СЗ 1 10 км 10 баллов -0.8 -3.3 83 -3 -3 1000.6 974.7
21 17.04 штиль 0 10 км 10/0
[Ci sp]
-0.2 -2.9 82 -1 -1 1000.5 974.7 -1.8
00 18.04 С 1 10 км слаб. ливневой дождь 10/10 600 м
[Cb cap]
+4.0 +1.2 82 +3 +3 1000.1 974.7
03 18.04 З 2 10 км в посл. час ливневой дождь 10 баллов +9.7 +7.6 87 +8 +8 999.6 974.7
06 18.04 З 3 10 км слаб. ливневой дождь 10 баллов +4.3 +2.0 85 +1 +1 1004.2 978.7
09 18.04 З 4 10 км {ливн. осадки} 10/10 600 м
[Sc]
+3.0 -1.4 73 -2 -2 1007.0 981.3 +10.1 8
12 18.04 З 4 10 км 10/10 600 м
[Sc]
+0.6 -2.4 80 -5 -5 1009.6 983.7
15 18.04 ЮЗ 1 10 км 4 балла -0.5 -4.6 74 -2 -2 1011.5 985.3
21 18.04 З 2 10 км ясно -1.0 -13.2 39 -4 -3 1010.4 984.3 -1.6
00 19.04 З 5-10
{14}
10 км 3/3 600 м
[Cu hum]
+2.8 -14.3 27 -1 +2 1009.6 983.9
03 19.04 З 6-11
{14}
10 км 10/10 600 м
[Sc]
+3.4 -14.3 26 -1 -1 1011.1 985.3
06 19.04 СЗ 5 10 км 10 баллов +4.7 -11.8 29 +1 +1 1011.0 985.3
09 19.04 З 3
{12}
10 км 10/10 600 м
[Sc]
+4.6 -11.9 29 +2 +2 1012.4 986.7 +5.3
12 19.04 СЗ 1 10 км 4/4 600 м
[Sc]
+1.8 -7.9 49 +1 +1 1012.9 987.0
15 19.04 штиль 0 10 км 9 баллов -2.6 -6.1 77 -4 -4 1014.4 988.0
18 19.04 З 2 10 км 9 баллов +0.2 -7.8 55 -3 -3 1015.5 989.3
21 19.04 штиль 0 10 км ясно -2.9 -6.6 76 -4 -3 1014.8 988.4 -4.7
00 20.04 З 1 10 км ясно +4.1 -8.7 39 +4 +14 опасность
простуды
1013.7 988.0
03 20.04 СЗ 2 10 км 2 балла +8.5 -8.5 29 +7 +20 опасность
простуды
1012.1 986.7
06 20.04 СЗ 2 10 км 9 баллов +10.8 -9.5 23 +10 +11 1010.4 985.3
09 20.04 СЗ 1 10 км 8/0
[Ci fib]
+11.2 -10.9 20 +12 +12 1009.1 984.0 +11.8
12 20.04 штиль 0 10 км 8/0
[Ci fib]
-1.5 -5.7 73 -2 -2 1009.5 983.4
15 20.04 В 1 10 км 10 баллов +1.3 -5.4 61 0 0 1010.0 984.0
18 20.04 штиль 0 10 км 10 баллов +0.2 -5.0 68 -1 -1 1010.1 984.0
21 20.04 штиль 0 10 км 9/0
[Ci fib]
-0.9 -4.1 79 -2 -1 1010.1 984.0 -2.1
00 21.04 ЮЗ 3 10 км 10/0
[Ci sp]
+10.1 -7.0 29 +9 +15 1009.3 984.2
03 21.04 З 5-10
{10}
10 км 8/0
[Ci sp]
+12.4 -13.5 15 +11 +13 1010.3 985.3
06 21.04 З 3 10 км 2 балла +14.5 -14.6 12 +14 +20 1008.8 984.0
09 21.04 З 3 10 км 1/0
[Ci fib]
+11.9 -13.9 15 +11 +11 1010.3 985.3 +14.7
12 21.04 штиль 0 10 км ясно +0.6 -7.2 56 0 0 1014.1 988.0
15 21.04 штиль 0 10 км ясно -3.6 -7.4 75 -4 -4 1015.9 989.3
18 21.04 штиль 0 10 км ясно -6.5 -7.7 91 -7 -7 1017.6 990.7
21 21.04 штиль 0 10 км ясно -5.5 -6.2 95 -7 -6 1018.3 991.6 -7.8
00 22.04 ЮЗ 1 10 км ясно +6.8 -6.8 37 +7 +18 опасность
простуды
1017.8 992.2
03 22.04 З 3 10 км ясно +13.3 -15.5 12 +13 +26 опасность
простуды
1017.1 992.0
06 22.04 З 3 10 км 7 баллов +15.1 -16.3 10 +15 +17 1015.6 990.7
09 22.04 З 3 10 км 3/0
[Ci fib]
+13.0 -14.8 13 +12 +13 1015.8 990.7 +15.3
12 22.04 штиль 0 10 км ясно +0.4 -7.3 56 -0 -0 1018.3 992.0
15 22.04 штиль 0 10 км ясно -3.1 -7.1 74 -4 -4 1017.3 990.7
21 22.04 С 2 10 км 10/10 600 м
[Sc]
+0.5 -4.4 70 -3 -3 1012.8 986.8 -3.9

 

Местоположение метеостанции Глубинное (Приморский край, Россия): широта 46.07 долгота 135.30 высота над уровнем моря 210 м.

В архиве по умолчанию представлена погода в Глубинном за последнюю неделю. Архивные данные за месяц целиком и за предыдущие месяцы, начиная с января 2011 года, Вы можете получить, выбрав интересующий диапазон дат из раскрывающегося списка и нажав кнопку "Ввод!".


*Определитесь, кто Вы:
робот инопланетянин человек

Внимание! Время в таблицах - всемирное. Для получения местного времени необходимо прибавить поправку, которая равна 10 ч.

Смотрите также архив погоды в соседних городах и на ближайших метеорологических станциях:

Погода в Красном Яре (Приморский край, Россия) (51 км)
Погода в Мельничном (Приморский край, Россия) (71 км)
Погода в Малиново (Приморский край, Россия) (112 км)
Погода в Бикине (Хабаровский край, Россия) (117 км)
Погода в Дальнереченске (Приморский край, Россия) (126 км)
Погода в Лермонтовке (Хабаровский край, Россия) (142 км)
Погода в Тернее (Приморский край, Россия) (156 км)
Погода в Малой Кеме (Приморский край, Россия) (158 км)
Погода в Вяземском (Хабаровский край, Россия) (168 км)
Погода в Лесозаводске (Приморский край, Россия) (169 км)

Пояснения к столбцам:

Ветер - указаны скорость ветра в м/с - средняя за 10 мин, порывы в срок и между сроками (в фигурных скобках) и направление, откуда дует ветер: С - северный, СВ - северо-восточный, В - восточный, ЮВ - юго-восточный, Ю - южный, ЮЗ - юго-западный, З - западный, СЗ - северо-западный.
Видимость - горизонтальная дальность видимости в метрах или километрах. При видимости от 1 до 10 км при отсутствии осадков обычно наблюдается дымка, при ухудшении видимости до 1 км и менее - туман. В сухую погоду видимость может ухудшаться дымом, пылью или мглою.
Явления - указаны атмосферные явления, наблюдавшиеся в срок или в последний час перед сроком; фигурными скобками обозначены явления, наблюдавшиеся между сроками (за 1-3 часа до срока); квадратными скобками обозначены град или гололедные отложения с указанием их диаметра в мм.
Облачность - указаны через наклонную черту общая и нижняя облачность в баллах и высота нижней границы облаков в метрах; квадратными скобками обозначены формы облаков: Ci - перистые, Cs - перисто-слоистые, Cc - перисто-кучевые, Ac - высококучевые, As - высокослоистые, Sc - слоисто-кучевые, Ns - слоисто-дождевые, Cu - кучевые, Cb - кучево-дождевые. Подробнее классификацию облаков см. в Атласе облаков (PDF).
T - Температура воздуха - температура, измеренная на высоте 2 м над землей.
Td - Температура точки росы - температура, при понижении до которой содержащийся в воздухе водяной пар достигнет насыщения.
f - Относительная влажность воздуха - влажноcть воздуха, измеренная на высоте 2 м над землей.
Te - Эффективная температура - температура, которую ощущает одетый по сезону человек в тени. Характеристика душности погоды. При расчете учитывается влияние влажности воздуха и скорости ветра на теплоощущения человека.
Tes - Эффективная температура на солнце - температура, которую ощущает человек, с поправкой на солнечный нагрев. Характеристика знойности погоды. Зависит от высоты солнца над горизонтом, облачности и скорости ветра. Ночью, в пасмурную погоду, а также при ветре 12 м/с и более поправка равна нулю.
P - Атмосферное давление - приведенное к уровню моря атмосферное давление.
Po - Атмосферное давление - измеренное на уровне метеостанции атмосферное давление.
Tmin - Минимальная температура - минимум температуры воздуха на высоте 2 м над землей.
Tmax - Максимальная температура - максимум температуры воздуха на высоте 2 м над землей.
R - Количество осадков - Количество выпавших осадков за период времени, мм. При наведении курсора мыши на число - период времени, за который выпало указанное количество осадков.
R24 - Количество осадков - Количество выпавших осадков за 24 часа, мм.
S - Снежный покров - Высота снежного покрова, см. При наведении курсора мыши на число - состояние снежного покрова и степень покрытия местности в баллах.